"startDT [UTC]","vpos","CH4 [ppm]","stdev(CH4) [ppm]","CO2 [ppm]","stdev(CO2) [ppm]","H2O_reported [%]","stdev(H2O_reported)","CavityPressure [torr]","CavityTemp [C]","OutletValve","CH4_dry [ppm]","CO2_dry [ppm]","DasTemp [C]","EtalonTemp [C]","WarmBoxTemp [C]","MPVPosition","T_ECpre [C]","T_EC1 [C]","T_EC2 [C]","p_inlet [hPa]","p_in [hPa]","p_out [hPa]","T_inlet [C]","RH_inlet [%]","dwpt_inlet [C]","T_vent [C]","RH_vent [%]","dwpt_vent [C]","flow_vent [l min-1]","flow_inlet [l min-1]","dwpt_sample [C]","T_room [C]"
2015-03-28 00:00:00,0.0,1.96093,0.00034,406.263,0.030,0.0805,0.0012,139.999,45.000,32285.12220,1.96250,406.657,34.999,45.067,45.000,0.00,0.09,-272.71,-272.76,6,679,-4,21.7,2.5,-27.3,22.0,2.7,-26.2,5.73,1.96,-15.6,28.0
2015-03-28 00:01:00,0.0,1.96107,0.00043,406.267,0.027,0.0814,0.0016,140.000,45.000,32286.60466,1.96264,406.663,35.000,45.067,45.000,0.00,0.09,-272.72,-272.77,5,679,-4,21.7,2.5,-27.3,22.0,2.7,-26.2,5.73,1.73,-15.6,28.0
2015-03-28 00:02:00,0.0,1.96136,0.00042,406.273,0.028,0.0812,0.0017,139.997,45.000,32282.39085,1.96291,406.671,34.999,45.067,45.000,0.00,0.09,-272.70,-272.77,5,679,-4,21.7,2.5,-27.3,22.0,2.7,-26.2,5.73,1.75,-15.5,28.0
2015-03-28 00:03:00,0.0,1.96147,0.00029,406.273,0.029,0.0815,0.0014,140.001,45.000,32284.08377,1.96306,406.671,35.000,45.067,45.000,0.00,0.09,-272.71,-272.76,6,679,-4,21.7,2.5,-27.2,22.0,2.7,-26.2,5.73,1.97,-15.5,28.1
2015-03-28 00:04:00,0.0,1.96147,0.00052,406.276,0.037,0.0816,0.0018,140.002,45.000,32285.96998,1.96306,406.674,35.001,45.067,45.000,0.00,0.09,-272.71,-272.77,4,679,-4,21.7,2.5,-27.3,22.0,2.7,-26.2,5.73,1.75,-15.5,28.1
2015-03-28 00:05:00,0.0,1.96140,0.00027,406.264,0.034,0.0819,0.0019,139.998,45.000,32286.27041,1.96295,406.664,35.017,45.067,45.000,0.00,0.09,-272.71,-272.77,6,678,-4,21.7,2.5,-27.3,22.0,2.7,-26.2,5.73,1.72,-15.5,28.0
2015-03-28 00:06:00,0.0,1.96166,0.00029,406.271,0.039,0.0815,0.0013,140.000,45.000,32286.99084,1.96324,406.668,35.060,45.067,45.000,0.00,0.09,-272.70,-272.76,5,679,-4,21.7,2.5,-27.2,22.0,2.7,-26.2,5.73,1.96,-15.5,28.1
2015-03-28 00:07:00,0.0,1.96170,0.00041,406.273,0.027,0.0816,0.0015,139.998,45.000,32285.56602,1.96328,406.674,35.063,45.067,45.000,0.00,0.09,-272.71,-272.77,4,679,-4,21.7,2.5,-27.2,22.0,2.7,-26.2,5.73,1.79,-15.5,28.1
2015-03-28 00:08:00,0.0,1.96149,0.00029,406.254,0.031,0.0826,0.0016,140.002,45.000,32289.02179,1.96306,406.657,35.063,45.067,45.000,0.00,0.09,-272.71,-272.78,6,679,-4,21.7,2.5,-27.1,22.0,2.8,-26.0,5.73,1.69,-15.5,28.1
2015-03-28 00:09:00,0.0,1.96147,0.00037,406.276,0.035,0.0823,0.0015,140.000,45.000,32289.86578,1.96309,406.678,35.057,45.067,45.000,0.00,0.09,-272.71,-272.77,5,679,-4,21.8,2.5,-27.1,22.1,2.7,-26.1,5.73,1.94,-15.5,28.1
2015-03-28 00:10:00,0.0,1.96137,0.00029,406.250,0.021,0.0826,0.0015,139.995,45.000,32289.34330,1.96296,406.652,35.048,45.067,45.000,0.00,0.09,-272.70,-272.76,5,679,-4,21.8,2.5,-27.1,22.1,2.7,-26.3,5.73,1.83,-15.5,28.1
2015-03-28 00:11:00,0.0,1.96149,0.00035,406.282,0.043,0.0837,0.0020,139.999,45.000,32288.64784,1.96309,406.692,35.063,45.067,45.000,0.00,0.09,-272.71,-272.77,6,679,-4,21.8,2.5,-27.1,22.1,2.7,-26.2,5.73,1.67,-15.5,28.1
2015-03-28 00:12:00,0.0,1.96159,0.00039,406.281,0.042,0.0826,0.0017,140.001,45.000,32288.49010,1.96319,406.685,35.073,45.067,45.000,0.00,0.09,-272.71,-272.77,4,679,-4,21.8,2.6,-27.0,22.1,2.7,-26.2,5.73,1.91,-15.5,28.1
2015-03-28 00:13:00,0.0,1.96150,0.00035,406.276,0.033,0.0826,0.0014,140.002,45.000,32290.57804,1.96309,406.680,35.103,45.067,45.000,0.00,0.09,-272.71,-272.76,6,678,-4,21.8,2.5,-27.1,22.0,2.7,-26.3,5.73,1.87,-15.5,28.1
2015-03-28 00:14:00,0.0,1.96170,0.00032,406.274,0.038,0.0843,0.0014,140.001,45.000,32291.51036,1.96332,406.686,35.125,45.067,45.000,0.00,0.09,-272.71,-272.77,5,679,-4,21.8,2.6,-26.9,22.0,2.7,-26.4,5.73,1.66,-15.5,28.1
2015-03-28 00:15:00,0.0,1.96160,0.00040,406.256,0.031,0.0838,0.0012,139.999,45.000,32293.34604,1.96325,406.667,35.129,45.067,45.000,0.00,0.09,-272.71,-272.77,5,678,-4,21.8,2.6,-26.9,22.1,2.7,-26.1,5.73,1.87,-15.5,28.1
2015-03-28 00:16:00,0.0,1.96207,0.00039,406.261,0.035,0.0828,0.0013,139.999,45.000,32293.35652,1.96363,406.666,35.136,45.067,45.000,0.00,0.09,-272.71,-272.76,6,679,-4,21.8,2.6,-26.8,22.1,2.7,-26.2,5.73,1.92,-15.5,28.1
2015-03-28 00:17:00,0.0,1.96179,0.00043,406.265,0.031,0.0836,0.0013,139.997,45.000,32294.94185,1.96339,406.673,35.154,45.067,45.000,0.00,0.09,-272.70,-272.77,5,679,-4,21.8,2.5,-27.1,22.0,2.7,-26.4,5.73,1.68,-15.5,28.2
2015-03-28 00:18:00,0.0,1.96215,0.00019,406.269,0.025,0.0842,0.0015,139.998,45.000,32291.27248,1.96380,406.681,35.175,45.067,45.000,0.00,0.09,-272.71,-272.77,5,678,-4,21.8,2.6,-26.9,22.1,2.7,-26.1,5.73,1.82,-15.5,28.2
2015-03-28 00:19:00,0.0,1.96246,0.00030,406.278,0.027,0.0837,0.0016,140.001,45.000,32293.19520,1.96406,406.687,35.180,45.067,45.000,0.00,0.09,-272.71,-272.77,6,679,-4,21.8,2.6,-26.8,22.1,2.7,-26.3,5.73,1.94,-15.5,28.2
2015-03-28 00:20:00,0.0,1.96249,0.00028,406.263,0.035,0.0848,0.0016,140.001,45.000,32294.38776,1.96413,406.679,35.189,45.067,45.000,0.00,0.09,-272.71,-272.77,4,679,-4,21.9,2.6,-26.8,22.1,2.7,-26.2,5.73,1.71,-15.4,28.2
2015-03-28 00:21:00,0.0,1.96240,0.00046,406.280,0.023,0.0857,0.0014,139.999,45.000,32292.13864,1.96405,406.699,35.199,45.067,45.000,0.00,0.09,-272.71,-272.77,6,678,-4,21.9,2.6,-26.8,22.1,2.7,-26.2,5.73,1.77,-15.4,28.2
2015-03-28 00:22:00,0.0,1.96278,0.00026,406.268,0.040,0.0858,0.0013,140.000,45.000,32293.10727,1.96444,406.687,35.238,45.067,45.000,0.00,0.09,-272.71,-272.77,5,679,-4,21.8,2.6,-26.6,22.1,2.7,-26.2,5.73,1.96,-15.4,28.2
2015-03-28 00:23:00,0.0,1.96209,0.00037,406.258,0.030,0.0857,0.0017,140.000,45.000,32295.56019,1.96379,406.678,35.231,45.067,45.000,0.00,0.09,-272.71,-272.76,5,678,-4,21.9,2.6,-26.8,22.1,2.7,-26.2,5.73,1.75,-15.4,28.2
2015-03-28 00:24:00,0.0,1.96198,0.00034,406.241,0.034,0.0865,0.0015,139.999,45.000,32296.07481,1.96361,406.663,35.231,45.067,45.000,0.00,0.09,-272.71,-272.77,6,679,-4,21.9,2.6,-26.6,22.2,2.7,-26.3,5.73,1.71,-15.4,28.2
2015-03-28 00:25:00,0.0,1.96168,0.00044,406.259,0.036,0.0861,0.0014,139.999,45.000,32298.64767,1.96340,406.679,35.249,45.067,45.000,0.00,0.09,-272.71,-272.77,5,679,-4,21.9,2.6,-26.6,22.2,2.8,-26.0,5.73,1.95,-15.4,28.1
2015-03-28 00:26:00,0.0,1.96144,0.00027,406.237,0.022,0.0865,0.0017,139.998,45.000,32298.16624,1.96310,406.660,35.250,45.067,45.000,0.00,0.09,-272.71,-272.77,5,678,-4,21.9,2.7,-26.5,22.2,2.8,-26.0,5.73,1.81,-15.4,28.2
2015-03-28 00:27:00,0.0,1.96162,0.00024,406.231,0.023,0.0870,0.0017,140.001,45.000,32297.63778,1.96331,406.657,35.285,45.067,45.000,0.00,0.09,-272.71,-272.76,6,679,-4,21.9,2.7,-26.4,22.2,2.7,-26.1,5.73,1.68,-15.4,28.2
2015-03-28 00:28:00,0.0,1.96161,0.00041,406.197,0.025,0.0887,0.0018,139.999,45.000,32296.31828,1.96332,406.629,35.272,45.067,45.000,0.00,0.09,-272.72,-272.77,4,679,-4,21.9,2.7,-26.5,22.2,2.7,-26.1,5.73,1.92,-15.4,28.2
2015-03-28 00:29:00,0.0,1.96264,0.00035,406.278,0.033,0.0890,0.0017,140.000,45.000,32295.97160,1.96434,406.711,35.250,45.067,45.000,0.00,0.09,-272.71,-272.77,5,678,-4,21.9,2.7,-26.3,22.2,2.7,-26.0,5.73,1.87,-15.4,28.3
2015-03-28 00:30:00,0.0,1.96263,0.00046,406.296,0.027,0.0898,0.0011,139.999,45.000,32294.93867,1.96431,406.736,35.250,45.067,45.000,0.00,0.09,-272.70,-272.76,5,678,-4,21.9,2.7,-26.3,22.2,2.7,-26.1,5.73,1.66,-15.4,28.2
2015-03-28 00:31:00,0.0,1.96291,0.00038,406.285,0.032,0.0905,0.0016,140.002,45.000,32294.56762,1.96468,406.727,35.251,45.067,45.000,0.00,0.09,-272.71,-272.77,4,678,-4,22.0,2.7,-26.3,22.2,2.7,-26.1,5.73,1.87,-15.4,28.2
2015-03-28 00:32:00,0.0,1.96291,0.00041,406.276,0.038,0.0899,0.0020,139.999,45.000,32293.04185,1.96466,406.715,35.250,45.067,45.000,0.00,0.09,-272.72,-272.77,6,678,-4,21.9,2.7,-26.2,22.2,2.7,-26.1,5.73,1.92,-15.4,28.3
2015-03-28 00:33:00,0.0,1.96273,0.00033,406.310,0.043,0.0890,0.0015,140.000,45.000,32292.99558,1.96444,406.746,35.254,45.067,45.000,0.00,0.09,-272.70,-272.76,5,678,-4,22.0,2.7,-26.4,22.2,2.7,-26.0,5.73,1.68,-15.4,28.3
2015-03-28 00:34:00,0.0,1.96297,0.00044,406.282,0.036,0.0886,0.0014,140.000,45.000,32292.80491,1.96469,406.716,35.258,45.067,45.000,0.00,0.09,-272.71,-272.77,5,678,-4,22.0,2.7,-26.2,22.2,2.7,-26.1,5.73,1.80,-15.4,28.3
2015-03-28 00:35:00,0.0,1.96267,0.00035,406.273,0.043,0.0886,0.0019,139.998,45.000,32293.66960,1.96436,406.707,35.250,45.067,45.000,0.00,0.09,-272.72,-272.77,6,678,-4,22.0,2.7,-26.4,22.3,2.7,-26.0,5.73,1.95,-15.4,28.3
2015-03-28 00:36:00,0.0,1.96303,0.00039,406.283,0.032,0.0885,0.0016,139.998,45.000,32292.02677,1.96473,406.715,35.250,45.067,45.000,0.00,0.09,-272.71,-272.76,4,678,-4,22.0,2.7,-26.4,22.2,2.8,-25.9,5.73,1.72,-15.4,28.3
2015-03-28 00:37:00,0.0,1.96293,0.00032,406.285,0.033,0.0874,0.0013,140.000,45.000,32292.90390,1.96464,406.712,35.250,45.067,45.000,0.00,0.09,-272.70,-272.77,5,678,-4,22.0,2.7,-26.3,22.2,2.8,-26.0,5.73,1.75,-15.4,28.3
2015-03-28 00:38:00,0.0,1.96273,0.00036,406.268,0.030,0.0875,0.0021,140.002,45.000,32296.38414,1.96444,406.697,35.249,45.067,45.000,0.00,0.09,-272.71,-272.77,6,678,-4,22.0,2.7,-26.5,22.3,2.8,-25.9,5.73,1.96,-15.4,28.3
2015-03-28 00:39:00,0.0,1.96248,0.00042,406.264,0.031,0.0861,0.0021,140.000,45.000,32296.67180,1.96415,406.684,35.249,45.067,45.000,0.00,0.09,-272.71,-272.77,4,678,-4,22.0,2.6,-26.7,22.2,2.8,-25.9,5.73,1.77,-15.3,28.3
2015-03-28 00:40:00,0.0,1.96168,0.00037,406.247,0.037,0.0866,0.0017,139.998,45.000,32295.53391,1.96338,406.671,35.249,45.067,45.000,0.00,0.09,-272.70,-272.76,6,678,-4,22.0,2.6,-26.6,22.3,2.7,-26.0,5.73,1.70,-15.3,28.3
2015-03-28 00:41:00,0.0,1.96171,0.00045,406.242,0.028,0.0867,0.0014,139.999,45.000,32296.47677,1.96338,406.665,35.249,45.067,45.000,0.00,0.09,-272.72,-272.77,5,678,-4,22.0,2.6,-26.6,22.3,2.8,-25.8,5.73,1.93,-15.3,28.3
2015-03-28 00:42:00,0.0,1.96151,0.00040,406.224,0.025,0.0871,0.0021,140.000,45.000,32299.68657,1.96321,406.650,35.253,45.067,45.000,0.00,0.09,-272.71,-272.77,4,678,-4,22.1,2.6,-26.6,22.3,2.8,-25.8,5.73,1.84,-15.3,28.4
2015-03-28 00:43:00,0.0,1.96153,0.00042,406.225,0.029,0.0875,0.0017,140.002,45.000,32299.74012,1.96322,406.653,35.265,45.067,45.000,0.00,0.09,-272.70,-272.76,6,678,-4,22.1,2.6,-26.6,22.3,2.8,-25.8,5.73,1.66,-15.3,28.4
2015-03-28 00:44:00,0.0,1.96142,0.00031,406.218,0.025,0.0878,0.0015,139.998,45.000,32299.42598,1.96310,406.646,35.309,45.067,45.000,0.00,0.09,-272.71,-272.77,5,678,-4,22.1,2.6,-26.5,22.4,2.8,-25.7,5.73,1.89,-15.3,28.3
2015-03-28 00:45:00,0.0,1.96226,0.00047,406.260,0.034,0.0880,0.0016,139.998,45.000,32297.11852,1.96392,406.690,35.313,45.067,45.000,0.00,0.09,-272.71,-272.77,5,678,-4,22.1,2.7,-26.3,22.3,2.8,-25.8,5.73,1.90,-15.3,28.4
2015-03-28 00:46:00,0.0,1.96320,0.00037,406.292,0.032,0.0886,0.0013,140.001,45.000,32294.62571,1.96486,406.725,35.313,45.067,45.000,0.00,0.09,-272.70,-272.77,6,678,-4,22.1,2.7,-26.4,22.3,2.8,-25.8,5.73,1.68,-15.3,28.4
2015-03-28 00:47:00,0.0,1.96344,0.00027,406.290,0.023,0.0893,0.0016,140.002,45.000,32297.60433,1.96517,406.728,35.313,45.067,45.000,0.00,0.09,-272.70,-272.77,4,678,-4,22.1,2.7,-26.4,22.3,2.8,-25.8,5.73,1.82,-15.3,28.4
2015-03-28 00:48:00,0.0,1.96222,0.00110,406.248,0.030,0.0882,0.0023,140.000,45.000,32298.66661,1.96404,406.681,35.313,45.067,45.000,0.00,0.09,-272.71,-272.77,5,678,-4,22.1,2.7,-26.4,22.4,2.8,-25.8,5.73,1.94,-15.3,28.4
2015-03-28 00:49:00,0.0,1.96124,0.00055,406.210,0.028,0.0887,0.0028,139.998,45.000,32297.78498,1.96287,406.644,35.323,45.067,45.000,0.00,0.09,-272.71,-272.77,5,678,-4,22.1,2.6,-26.5,22.4,2.8,-25.7,5.73,1.71,-15.3,28.4
2015-03-28 00:50:00,0.0,1.96209,0.00080,406.233,0.048,0.0885,0.0020,139.996,45.000,32295.98781,1.96379,406.663,35.335,45.067,45.000,0.00,0.09,-272.70,-272.77,4,678,-4,22.1,2.6,-26.5,22.4,2.8,-25.7,5.73,1.75,-15.3,28.4
2015-03-28 00:51:00,0.0,1.96276,0.00054,406.250,0.029,0.0893,0.0014,140.001,45.000,32297.85514,1.96450,406.688,35.330,45.067,45.000,0.00,0.09,-272.71,-272.76,6,678,-4,22.1,2.7,-26.2,22.4,2.8,-25.7,5.73,1.96,-15.3,28.4
2015-03-28 00:52:00,0.0,1.96304,0.00070,406.259,0.030,0.0892,0.0018,140.000,45.000,32299.42910,1.96473,406.695,35.350,45.067,45.000,0.00,0.09,-272.71,-272.76,5,678,-4,22.1,2.7,-26.3,22.4,2.8,-25.7,5.73,1.77,-15.3,28.4
2015-03-28 00:53:00,0.0,1.96342,0.00036,406.278,0.033,0.0894,0.0013,139.998,45.000,32297.68988,1.96517,406.715,35.357,45.067,45.000,0.00,0.09,-272.70,-272.76,4,678,-4,22.1,2.7,-26.2,22.4,2.8,-25.7,5.73,1.70,-15.2,28.4
2015-03-28 00:54:00,0.0,1.96375,0.00035,406.271,0.034,0.0896,0.0012,139.999,45.000,32298.17700,1.96546,406.709,35.365,45.067,45.000,0.00,0.09,-272.71,-272.77,6,678,-4,22.1,2.7,-26.3,22.4,2.8,-25.7,5.73,1.94,-15.2,28.5
2015-03-28 00:55:00,0.0,1.96394,0.00042,406.268,0.038,0.0889,0.0017,140.000,45.000,32295.63280,1.96563,406.702,35.360,45.067,45.000,0.00,0.09,-272.71,-272.77,4,678,-4,22.2,2.7,-26.4,22.4,2.8,-25.7,5.73,1.83,-15.2,28.5
2015-03-28 00:56:00,0.0,1.96456,0.00042,406.282,0.036,0.0887,0.0021,139.999,45.000,32294.21470,1.96626,406.717,35.346,45.067,45.000,0.00,0.09,-272.71,-272.76,4,678,-4,22.1,2.7,-26.4,22.4,2.8,-25.7,5.73,1.66,-15.2,28.5
2015-03-28 00:57:00,0.0,1.96475,0.00027,406.265,0.042,0.0877,0.0019,139.999,45.000,32293.79320,1.96645,406.694,35.330,45.067,45.000,0.00,0.09,-272.71,-272.77,5,678,-4,22.2,2.6,-26.5,22.4,2.8,-25.7,5.73,1.89,-15.2,28.5
2015-03-28 00:58:00,0.0,1.96438,0.00022,406.252,0.036,0.0875,0.0014,140.002,45.000,32296.62426,1.96609,406.680,35.338,45.067,45.000,0.00,0.09,-272.71,-272.77,4,678,-4,22.2,2.6,-26.4,22.4,2.8,-25.6,5.73,1.90,-15.2,28.5
2015-03-28 00:59:00,0.0,1.96439,0.00029,406.264,0.033,0.0879,0.0014,139.999,45.000,32296.15424,1.96609,406.694,35.378,45.067,45.000,0.00,0.09,-272.71,-272.77,5,678,-4,22.2,2.6,-26.6,22.4,2.8,-25.6,5.73,1.67,-15.2,28.5
2015-03-28 01:00:00,0.0,1.96477,0.00043,406.262,0.032,0.0880,0.0021,140.001,45.000,32295.89942,1.96645,406.691,35.435,45.067,45.000,0.00,0.09,-272.71,-272.77,5,678,-4,22.2,2.6,-26.7,22.5,2.8,-25.5,5.73,1.82,-15.2,28.5
2015-03-28 01:01:00,0.0,1.96465,0.00031,406.247,0.038,0.0876,0.0014,140.002,45.000,32296.70772,1.96637,406.676,35.475,45.067,45.000,0.00,0.09,-272.71,-272.77,4,678,-4,22.2,2.6,-26.5,22.5,2.8,-25.6,5.73,1.95,-15.2,28.4
2015-03-28 01:02:00,0.0,1.96427,0.00035,406.243,0.043,0.0875,0.0020,140.000,45.000,32299.59782,1.96596,406.670,35.495,45.067,45.000,0.00,0.09,-272.71,-272.78,5,678,-4,22.2,2.6,-26.5,22.5,2.8,-25.5,5.73,1.72,-15.2,28.5
2015-03-28 01:03:00,0.0,1.96435,0.00034,406.238,0.032,0.0889,0.0016,140.002,45.000,32301.61256,1.96608,406.673,35.501,45.066,44.999,0.00,0.09,-272.70,-272.76,5,678,-4,22.2,2.6,-26.5,22.4,2.8,-25.6,5.73,1.73,-15.2,28.5
2015-03-28 01:04:00,0.0,1.96409,0.00023,406.217,0.031,0.0888,0.0015,140.000,45.000,32301.34340,1.96583,406.651,35.538,45.066,44.999,0.00,0.09,-272.71,-272.76,4,678,-4,22.2,2.6,-26.5,22.5,2.8,-25.5,5.73,1.95,-15.2,28.5
2015-03-28 01:05:00,0.0,1.96356,0.00031,406.234,0.031,0.0888,0.0015,139.999,45.000,32300.80737,1.96528,406.668,35.558,45.066,44.999,0.00,0.09,-272.72,-272.77,5,678,-4,22.2,2.7,-26.3,22.5,2.8,-25.6,5.73,1.79,-15.2,28.5
2015-03-28 01:06:00,0.0,1.96344,0.00034,406.236,0.025,0.0895,0.0018,140.000,45.000,32301.87463,1.96519,406.674,35.557,45.066,44.999,0.00,0.09,-272.70,-272.77,4,678,-4,22.2,2.7,-26.3,22.5,2.8,-25.5,5.73,1.68,-15.2,28.4
2015-03-28 01:07:00,0.0,1.96309,0.00063,406.237,0.046,0.0890,0.0017,140.002,45.000,32302.63335,1.96483,406.673,35.555,45.066,44.999,0.00,0.09,-272.71,-272.76,5,678,-4,22.2,2.6,-26.4,22.5,2.8,-25.6,5.73,1.91,-15.2,28.4
2015-03-28 01:08:00,0.0,1.96298,0.00039,406.213,0.029,0.0895,0.0015,140.000,45.000,32303.24591,1.96470,406.650,35.548,45.067,45.000,0.00,0.09,-272.72,-272.77,5,678,-4,22.2,2.7,-26.3,22.4,2.8,-25.5,5.73,1.87,-15.2,28.4
2015-03-28 01:09:00,0.0,1.96137,0.00096,406.167,0.039,0.0888,0.0013,140.000,45.000,32304.15878,1.96319,406.602,35.546,45.067,45.000,0.00,0.09,-272.71,-272.77,4,678,-4,22.3,2.7,-26.2,22.5,2.8,-25.5,5.73,1.67,-15.2,28.5
2015-03-28 01:10:00,0.0,1.96036,0.00124,406.178,0.041,0.0892,0.0013,140.001,45.000,32304.22999,1.96212,406.615,35.536,45.067,45.000,0.00,0.09,-272.70,-272.77,5,678,-4,22.3,2.7,-26.2,22.5,2.8,-25.5,5.73,1.85,-15.1,28.5
2015-03-28 01:11:00,0.0,1.95863,0.00053,406.112,0.035,0.0899,0.0019,140.002,45.000,32306.81582,1.96039,406.553,35.550,45.067,45.000,0.00,0.09,-272.70,-272.76,5,678,-4,22.2,2.7,-26.1,22.5,2.8,-25.5,5.73,1.92,-15.1,28.5
2015-03-28 01:12:00,0.0,1.95816,0.00060,406.101,0.033,0.0911,0.0023,139.998,45.000,32304.73270,1.95992,406.546,35.526,45.067,45.001,0.00,0.09,-272.71,-272.77,4,678,-4,22.2,2.7,-26.0,22.5,2.8,-25.5,5.73,1.69,-15.1,28.5
2015-03-28 01:13:00,0.0,1.95770,0.00042,406.106,0.041,0.0909,0.0017,139.996,45.000,32301.12418,1.95948,406.551,35.522,45.067,45.000,0.00,0.09,-272.70,-272.77,5,678,-4,22.3,2.7,-25.9,22.5,2.8,-25.5,5.73,1.77,-15.1,28.5
2015-03-28 01:14:00,0.0,1.95684,0.00041,406.099,0.032,0.0912,0.0018,139.999,45.000,32303.68998,1.95861,406.544,35.529,45.068,45.001,0.00,0.09,-272.70,-272.76,5,678,-4,22.3,2.7,-26.0,22.5,2.8,-25.5,5.73,1.95,-15.1,28.5
2015-03-28 01:15:00,0.0,1.95665,0.00046,406.110,0.037,0.0920,0.0019,140.000,45.000,32304.63264,1.95843,406.561,35.501,45.067,45.001,0.00,0.09,-272.72,-272.77,4,678,-4,22.3,2.8,-25.9,22.6,2.8,-25.5,5.73,1.76,-15.1,28.6
2015-03-28 01:16:00,0.0,1.95603,0.00032,406.084,0.033,0.0931,0.0013,140.003,45.000,32307.44327,1.95783,406.538,35.517,45.068,45.001,0.00,0.09,-272.70,-272.77,6,678,-4,22.3,2.8,-25.8,22.6,2.8,-25.5,5.73,1.70,-15.1,28.6
2015-03-28 01:17:00,0.0,1.95623,0.00028,406.090,0.033,0.0936,0.0019,140.001,45.000,32304.14958,1.95806,406.548,35.554,45.068,45.000,0.00,0.09,-272.71,-272.77,4,678,-4,22.3,2.8,-25.8,22.6,2.8,-25.5,5.73,1.93,-15.1,28.6
2015-03-28 01:18:00,0.0,1.95600,0.00041,406.045,0.034,0.0953,0.0014,140.004,45.000,32306.43715,1.95781,406.512,35.565,45.067,45.000,0.00,0.09,-272.71,-272.76,4,677,-4,22.3,2.8,-25.7,22.6,2.8,-25.4,5.73,1.85,-15.1,28.6
2015-03-28 01:19:00,0.0,1.95706,0.00050,406.050,0.023,0.0948,0.0017,139.999,45.000,32304.99009,1.95887,406.513,35.618,45.067,45.000,0.00,0.09,-272.71,-272.77,5,677,-4,22.4,2.8,-25.7,22.6,2.8,-25.5,5.73,1.66,-15.1,28.6
2015-03-28 01:20:00,0.0,1.95666,0.00042,406.063,0.028,0.0939,0.0021,140.001,45.000,32305.98353,1.95848,406.523,35.631,45.067,45.000,0.00,0.09,-272.70,-272.76,4,677,-4,22.3,2.8,-25.7,22.6,2.8,-25.5,5.73,1.87,-15.1,28.6
2015-03-28 01:21:00,0.0,1.95733,0.00036,406.088,0.028,0.0926,0.0020,139.996,45.000,32303.36866,1.95910,406.540,35.673,45.067,45.000,0.00,0.09,-272.71,-272.76,5,677,-4,22.4,2.8,-25.8,22.6,2.8,-25.4,5.73,1.91,-15.1,28.6
2015-03-28 01:22:00,0.0,1.95743,0.00026,406.084,0.035,0.0927,0.0015,139.997,45.000,32302.03698,1.95923,406.538,35.688,45.066,44.999,0.00,0.09,-272.71,-272.77,5,677,-4,22.4,2.7,-26.0,22.6,2.8,-25.4,5.73,1.68,-15.1,28.6
2015-03-28 01:23:00,0.0,1.95655,0.00031,406.060,0.037,0.0919,0.0022,140.000,45.000,32304.77699,1.95834,406.509,35.688,45.066,44.999,0.00,0.09,-272.71,-272.76,4,677,-4,22.4,2.7,-25.9,22.6,2.8,-25.4,5.73,1.78,-15.1,28.7
2015-03-28 01:24:00,0.0,1.95681,0.00041,406.038,0.022,0.0914,0.0019,140.001,45.000,32304.79457,1.95855,406.484,35.688,45.066,45.000,0.00,0.09,-272.70,-272.76,5,677,-4,22.4,2.7,-26.1,22.6,2.8,-25.4,5.73,1.94,-15.1,28.7
2015-03-28 01:25:00,0.0,1.95686,0.00029,406.062,0.030,0.0900,0.0027,139.998,45.000,32303.46328,1.95860,406.502,35.707,45.066,45.000,0.00,0.09,-272.71,-272.77,5,677,-4,22.4,2.7,-26.1,22.6,2.8,-25.3,5.73,1.75,-15.0,28.7
2015-03-28 01:26:00,0.0,1.95701,0.00046,406.063,0.027,0.0901,0.0015,139.998,45.000,32301.99127,1.95872,406.504,35.715,45.067,45.000,0.00,0.09,-272.71,-272.77,4,677,-4,22.4,2.7,-26.2,22.6,2.8,-25.3,5.73,1.71,-15.1,28.6
2015-03-28 01:27:00,0.0,1.95851,0.00047,406.091,0.027,0.0906,0.0015,140.000,45.000,32304.81097,1.96025,406.534,35.704,45.067,45.000,0.00,0.09,-272.70,-272.77,5,677,-4,22.4,2.7,-26.1,22.6,2.8,-25.4,5.73,1.93,-15.0,28.6
2015-03-28 01:28:00,0.0,1.95730,0.00046,406.069,0.023,0.0913,0.0015,140.001,45.000,32301.77558,1.95910,406.515,35.698,45.067,45.000,0.00,0.09,-272.71,-272.77,4,677,-4,22.4,2.7,-26.1,22.6,2.8,-25.3,5.73,1.85,-15.0,28.6
2015-03-28 01:29:00,0.0,1.95717,0.00040,406.077,0.023,0.0913,0.0020,140.000,45.000,32301.45384,1.95893,406.524,35.698,45.067,45.000,0.00,0.09,-272.71,-272.78,4,677,-4,22.4,2.7,-26.1,22.7,2.8,-25.3,5.73,1.66,-15.0,28.7
2015-03-28 01:30:00,0.0,1.95651,0.00044,406.037,0.042,0.0906,0.0015,140.001,45.000,32301.04472,1.95827,406.479,35.690,45.067,45.000,0.00,0.09,-272.71,-272.77,5,677,-4,22.4,2.7,-26.2,22.7,2.8,-25.3,5.73,1.84,-15.0,28.7
2015-03-28 01:31:00,0.0,1.95614,0.00045,406.059,0.028,0.0902,0.0015,140.002,45.000,32300.26730,1.95785,406.500,35.691,45.067,45.000,0.00,0.09,-272.71,-272.76,4,677,-5,22.4,2.7,-26.2,22.7,2.9,-25.3,5.73,1.92,-15.0,28.7
2015-03-28 01:32:00,0.0,1.95636,0.00035,406.067,0.036,0.0898,0.0012,139.999,45.000,32302.32596,1.95807,406.506,35.709,45.067,45.000,0.00,0.09,-272.71,-272.77,4,677,-5,22.4,2.7,-26.1,22.7,2.9,-25.2,5.73,1.71,-15.0,28.7
2015-03-28 01:33:00,0.0,1.95690,0.00035,406.082,0.038,0.0899,0.0017,140.001,45.000,32303.29112,1.95865,406.520,35.746,45.067,45.000,0.00,0.09,-272.71,-272.77,5,677,-5,22.4,2.7,-26.2,22.7,2.9,-25.3,5.73,1.75,-15.0,28.7
2015-03-28 01:34:00,0.0,1.95694,0.00046,406.096,0.036,0.0898,0.0016,140.000,45.000,32302.46523,1.95865,406.535,35.768,45.067,45.000,0.00,0.09,-272.70,-272.76,4,677,-4,22.5,2.6,-26.2,22.7,2.9,-25.2,5.73,1.94,-15.0,28.7
2015-03-28 01:35:00,0.0,1.95845,0.00066,406.103,0.023,0.0905,0.0017,139.999,45.000,32302.68126,1.96013,406.545,35.769,45.067,45.000,0.00,0.09,-272.71,-272.76,4,677,-4,22.5,2.7,-26.2,22.7,2.9,-25.2,5.73,1.80,-15.0,28.7
2015-03-28 01:36:00,0.0,1.95844,0.00082,406.113,0.026,0.0903,0.0018,139.999,45.000,32302.90471,1.96025,406.554,35.775,45.067,45.000,0.00,0.09,-272.71,-272.77,5,677,-5,22.5,2.7,-26.1,22.7,2.9,-25.2,5.73,1.68,-15.0,28.7
2015-03-28 01:37:00,0.0,1.95861,0.00067,406.113,0.028,0.0914,0.0015,139.996,45.000,32303.02999,1.96028,406.560,35.763,45.067,45.000,0.00,0.09,-272.70,-272.76,3,677,-5,22.5,2.7,-26.1,22.7,2.9,-25.2,5.73,1.88,-15.0,28.8
2015-03-28 01:38:00,0.0,1.96152,0.00061,406.161,0.043,0.0909,0.0017,140.000,45.000,32302.10992,1.96319,406.605,35.776,45.067,45.000,0.00,0.09,-272.71,-272.76,4,677,-5,22.5,2.7,-26.1,22.7,2.9,-25.1,5.73,1.90,-15.0,28.7
2015-03-28 01:39:00,0.0,1.96224,0.00035,406.159,0.031,0.0914,0.0011,140.001,45.000,32301.53816,1.96401,406.605,35.787,45.067,45.000,0.00,0.09,-272.71,-272.77,5,677,-5,22.5,2.7,-26.1,22.7,2.9,-25.2,5.73,1.68,-15.0,28.7
2015-03-28 01:40:00,0.0,1.96198,0.00040,406.161,0.034,0.0912,0.0018,139.999,45.000,32302.59341,1.96375,406.608,35.811,45.067,45.000,0.00,0.09,-272.70,-272.77,3,677,-5,22.5,2.7,-26.0,22.7,2.8,-25.2,5.73,1.78,-15.0,28.7
2015-03-28 01:41:00,0.0,1.96133,0.00059,406.134,0.036,0.0897,0.0015,140.000,45.000,32305.21206,1.96312,406.572,35.812,45.067,45.000,0.00,0.09,-272.70,-272.77,5,677,-5,22.5,2.7,-26.2,22.7,2.8,-25.3,5.73,1.94,-14.9,28.7
2015-03-28 01:42:00,0.0,1.95928,0.00080,406.087,0.051,0.0902,0.0023,140.001,45.000,32306.44441,1.96109,406.530,35.815,45.067,45.000,0.00,0.09,-272.71,-272.77,4,677,-5,22.5,2.6,-26.3,22.8,2.8,-25.2,5.73,1.75,-14.9,28.8
2015-03-28 01:43:00,0.0,1.95777,0.00048,406.065,0.038,0.0896,0.0018,139.999,45.000,32305.53141,1.95953,406.502,35.813,45.067,45.000,0.00,0.09,-272.71,-272.77,4,677,-5,22.5,2.6,-26.2,22.8,2.8,-25.2,5.73,1.70,-14.9,28.8
2015-03-28 01:44:00,0.0,1.95786,0.00035,406.081,0.034,0.0903,0.0020,140.000,45.000,32305.62339,1.95958,406.523,35.808,45.067,45.000,0.00,0.09,-272.70,-272.77,5,677,-5,22.5,2.6,-26.2,22.8,2.8,-25.2,5.73,1.93,-14.9,28.8
2015-03-28 01:45:00,0.0,1.95823,0.00058,406.097,0.036,0.0912,0.0021,139.998,45.000,32305.55848,1.95997,406.541,35.765,45.067,45.000,0.00,0.09,-272.71,-272.77,4,677,-5,22.5,2.7,-26.1,22.8,2.8,-25.2,5.73,1.84,-14.9,28.8
2015-03-28 01:46:00,0.0,1.95810,0.00039,406.084,0.026,0.0922,0.0014,139.999,45.000,32306.92048,1.95989,406.536,35.762,45.067,45.001,0.00,0.09,-272.71,-272.77,4,677,-5,22.6,2.7,-26.0,22.8,2.8,-25.2,5.73,1.67,-14.9,28.8